Regional Weather Roundup
Issued by NWS

Home | Current Version | Previous Version | Text Only | Print | Product List | Glossary Off
Versions: 1 2 3 4 5 6 7 8 9 10 11 12 13 14 15 16 17 18 19 20 21 22 23 24 25 26 27 28 29 30 31 32 33 34 35 36 37 38 39 40 41 42 43 44 45 46 47 48 49 50

000
ASUS45 KTFX 130610
RWRMT
MONTANA REGIONAL WEATHER ROUNDUP
NATIONAL WEATHER SERVICE GREAT FALLS MT
1100 PM MST WED DEC 12 2018

NOTE: "FAIR" INDICATES FEW OR NO CLOUDS BELOW 12000 FEET WITH NO
SIGNIFICANT WEATHER AND/OR OBSTRUCTIONS TO VISIBILITY.

MTZ001>007-043-130700-
WEST OF THE DIVIDE

CITY           SKY/WX    TMP DP  RH WIND       PRES   REMARKS
KALISPELL      CLOUDY    35  21  56 S9        30.20R WCI  28
MISSOULA       MOCLDY    29  21  72 CALM      30.27S
BUTTE          FAIR      19   7  59 CALM      30.22R
MULLAN PASS    CLOUDY    23  18  81 VRB7      30.14S HAZE    WCI  15
ANACONDA         N/A     25  10  54 W9        30.23F WCI  15
DEER LODGE       N/A     27  14  59 W3        30.24F
LIBBY            N/A     36  27  69 NE9       30.19F WCI  29
RONAN            N/A     32  21  64 S10G17    30.23R WCI  24
$$

MTZ008-052>055-130700-
SOUTHWEST MONTANA

CITY           SKY/WX    TMP DP  RH WIND       PRES   REMARKS
BOZEMAN        FAIR      19   9  65 SE5       30.22R
DILLON         MOCLDY    23  11  60 SW17      30.23R WCI   9
ENNIS          PTCLDY    19   9  63 S5        30.27S
W YELLOWSTONE  FAIR      12   7  79 SW9       30.20R WCI   0
THREE FORKS      N/A     29   9  43 SW9       30.17R WCI  21
TWIN BRIDGES     N/A     24   9  53 CALM      30.21R
$$

MTZ009-010-012-014-046-048-049-054-130700-
EAST SLOPES AND CENTRAL MONTANA

CITY           SKY/WX    TMP DP  RH WIND       PRES   REMARKS
CUT BANK       FAIR      32  17  54 W35G48    29.95F WCI  17
GREAT FALLS    FAIR      28  15  58 SW15      30.05R WCI  16
MALMSTROM AFB  FAIR      31  16  54 SW18      30.07R WCI  19
HELENA         FAIR      33  14  45 W8G22     30.17R WCI  26
AUGUSTA        MOCLDY    31  11  44 W29G40    30.01F WCI  16
CHOTEAU          N/A     34   9  35 W21       29.99F WCI  22
POWER          FAIR      28  12  51 SW16      30.03R WCI  16
RAYNESFORD     FAIR      33   9  36 S24       30.05S WCI  20
ULM            FAIR      33  14  45 W21       30.07R WCI  21
WHITE SULPHUR    N/A     23  10  58 NE10      30.10R WCI  12
$$

MTZ011-013-016-021-045-047-050-051-130700-
NORTH CENTRAL MONTANA

CITY           SKY/WX    TMP DP  RH WIND       PRES   REMARKS
HAVRE          FAIR      29  20  69 SW13      29.99S WCI  19
LEWISTOWN      FAIR      23  12  62 E7        30.05R WCI  15
N BAR RANCH    FAIR      28   9  43 NW17      30.03S WCI  16
CHINOOK          N/A     34  19  55 SW13      29.99R WCI  25
GEYSER         FAIR      26  10  52 W13       30.05R WCI  14
GRASS RANGE    FAIR      30  13  48 W17       29.99S WCI  18
JUDITH GAP     FAIR      23  11  58 W12       30.05R WCI  12
ROY            FAIR      31  14  50 W20       30.00R WCI  19
STANFORD       FAIR      29   9  42 W20       30.03S WCI  17
WINIFRED         N/A     26  14  61 SW7       30.02R WCI  18
$$

MTZ017>020-022>027-061-062-130700-
NORTHEAST MONTANA

CITY           SKY/WX    TMP DP  RH WIND       PRES   REMARKS
GLASGOW        FAIR      31  23  72 W9        29.94R WCI  23
GLENDIVE       FAIR      32  27  81 SW5       29.98R
JORDAN           N/A     30  24  78 W9        29.99R WCI  22
MALTA          CLEAR     28  21  74 W10       29.95R WCI  19
SIDNEY         FAIR      30  26  85 W17       29.93R WCI  18
WOLF POINT     FAIR      27  24  89 W8        29.96R WCI  19
POPLAR           N/A     27  23  86 CALM      29.94R
SCOBEY           N/A     22  14  71 CALM      29.87R
$$

MTZ028>42-056>058-130700-
SOUTHCENTRAL AND SOUTHEAST MONTANA

CITY           SKY/WX    TMP DP  RH WIND       PRES   REMARKS
BAKER          CLOUDY    32  28  85 W16       29.97R WCI  21
BILLINGS       FAIR      32  11  41 W15       30.11R WCI  22
LIVINGSTON     FAIR      28  12  51 W16       30.15R WCI  16
MILES CITY     FAIR      31  28  89 W12       30.02R WCI  22
BIG TIMBER     CLEAR     28   9  43 W23G29    30.12S WCI  14
FORSYTH          N/A     34  27  75 W10       30.05R WCI  26
HARLOWTON      FAIR      26  13  57 W21       30.08R WCI  12
LAUREL           N/A     36  10  35 W21G29    30.12S WCI  24
$$

REGIONAL REPORTS...DAKOTAS

CITY           SKY/WX    TMP DP  RH WIND       PRES   REMARKS
WILLISTON      FAIR      32  24  72 W13       29.88R WCI  22
MINOT          CLOUDY    36  29  75 W24G33    29.77R WCI  24
DICKINSON      CLOUDY    34  28  79 NW24G41   29.88R WCI  21
BEACH          CLOUDY    30  28  93 NW14      29.95R WCI  20
CROSBY         FAIR      30  27  86 W14       29.85R WCI  20
TIOGA          FAIR      30  30 100 W16       29.85R WCI  19
WATFORD CITY   FAIR      32  28  86 W12       29.88R WCI  23
BISMARCK       CLOUDY    37  28  70 NW21G32   29.80R WCI  26
GRAND FORKS    CLOUDY    27  25  92 S15       29.72R FOG     WCI  15
FARGO          CLOUDY    26  25  96 S15       29.77R FOG     WCI  14
BUFFALO SD       N/A     35  28  75 NW30G41   29.90R WCI  22
RAPID CITY     FAIR      36  26  67 NW29G41   29.91R WCI  23
$$

REGIONAL REPORTS...WYOMING/IDAHO/WASHINGTON

CITY           SKY/WX    TMP DP  RH WIND       PRES   REMARKS
GILLETTE       FAIR      29  22  75 NW26G36   30.05R WCI  14
SHERIDAN       CLOUDY    33  13  43 NW13      30.10R WCI  24
BUFFALO WY     MOCLDY    32  11  41 NW21G30   30.06R WCI  20
CODY           FAIR      29   7  39 W8        30.12S WCI  21
YELLOWSTONE LA   N/A     -1  -5  82 W6        30.20R WCI -13
IDAHO FALLS    FAIR      21  17  84 S9        30.34R WCI  11
SALMON         FAIR      18  10  71 SE3       30.35R
BOISE          FAIR      29  23  78 SE8       30.40R WCI  21
SPOKANE        MOCLDY    35  29  78 S13       30.22F WCI  26
$$

REGIONAL REPORTS...ALBERTA

CITY           SKY/WX    TMP DP  RH WIND       PRES   REMARKS
CALGARY        MOCLDY    25  10  54 SE6       29.74F WCI  18
CARDSTON         N/A     34  18  51 W17G24      N/A  WCI  23
EDMONTON       MOCLDY    25  10  54 SW7       29.61F WCI  17
FORT MCMURRAY  CLEAR     28  16  59 SW13      29.44S WCI  18
HIGH LEVEL     CLEAR     19  16  86 S3        29.30F
LETHBRIDGE     MOCLDY    34  18  51 SW22      29.91F WCI  22
LLOYDMINSTER   CLEAR     21  10  63 W14       29.66R WCI   8
MEDICINE HAT   CLEAR     32  18  55 W20G28    29.88R WCI  20
MILK RIVER       N/A     30  19  64 W22G29      N/A  WCI  17
ONEFOUR          N/A     30  19  64 W24G31      N/A  WCI  16
PEACE RIVER    CLOUDY    23  14  68 S5        29.43F
PINCHER CREEK  CLOUDY    32  16  51 W23       29.95R WCI  19
RAYMOND          N/A     34  19  55 SW20        N/A  WCI  22
WATERTON GATE    N/A     32  18  55 SW23G32     N/A  WCI  19
$$

REGIONAL REPORTS...SASKATCHEWAN

CITY           SKY/WX    TMP DP  RH WIND       PRES   REMARKS
CORONACH         N/A     25  21  86 W10         N/A  WCI  15
CYPRESS HILLS    N/A     28   9  43 W13G23      N/A  WCI  18
ESTEVAN        MOCLDY    27  21  80 W14G20    29.81R WCI  15
MOOSE JAW        N/A     30  21  69 W16         N/A  WCI  19
PRINCE ALBERT  CLEAR     23  14  68 W9        29.65R WCI  13
ROCKGLEN         N/A     23  18  80 SW13        N/A  WCI  11
SASKATOON      CLEAR     16  10  79 SW12      29.73R WCI   3
SWIFT CURRENT  CLEAR     27  18  69 W21G26    29.83R WCI  13
VAL MARIE        N/A     23  18  80 W17         N/A  WCI   9
$$




USA.gov is the U.S. government's official web portal to all federal, state and local government web resources and services.